Location: Lakeview Terrace
(41.4931°N, 81.7101°W)
Time: 20:15:37
(UTC+00:00)

IRS-1C Rocket - Pass Details

Date: 29 October 2020
Orbit: 800 x 805 km, 99.0° (Epoch: 02 December)

Event Time Altitude Azimuth Distance (km) Brightness Sun altitude
Rises 23:30:38 0° 160° (SSE) 3,300 7.2 -12.9°
Reaches altitude 10° 23:32:57 10° 159° (SSE) 2,374 6.4 -13.3°
Maximum altitude 23:38:12 79° 74° (ENE) 825 4.0 -14.3°
Drops below altitude 10° 23:43:29 10° 349° (NNW) 2,394 6.6 -15.2°
Sets 23:45:50 0° 348° (NNW) 3,329 7.4 -15.7°
